[[{"header":{"parameterUnit":"m.s-1","parameterCategory":2,"la1":30.2991,"la2":30.254,"lo1":-89.0895,"lo2":-89.0444,"dy":0.0017,"dx":0.0017,"nx":28,"ny":28,"refTime":"2024-05-06T09:00:00:Z","depth":"0","parameterNumber":2,"parameterNumberName":"U-component_of_CURRENTS"},"data":[0,0,0,0,0,0,0,0,0,0,0,0,0,0,0,0,0,0,0,0,0,0,0,0,0,0,0,0,0,0,0,0,0,0,0,0,0,0,0,0,0,0,0,0,0,0,0,0,0,0,0,0,0,0,0,0,0,0,0.2762,0.2762,0,0.2812,0.2813,0.2813,0.2823,0.2823,0.2823,0.2823,0.2839,0.284,0.284,0,0,0,0,0,0,0,0,0,0,0,0,0,0.2659,0.266,0.2762,0.2762,0.2763,0.2812,0.2813,0.2813,0.2823,0.2823,0.2823,0.2822,0.2839,0.284,0.284,0,0,0,0,0,0,0,0,0,0,0,0,0,0.2703,0.2661,0.2761,0.2776,0.2778,0.2812,0.2813,0.2813,0.2823,0.2823,0.2823,0.2822,0.2839,0.2839,0.284,0.2851,0,0,0.2843,0.2843,0,0,0,0,0,0,0,0,0.2701,0.2707,0.2773,0.2775,0.2777,0.2813,0.2783,0.2825,0.2823,0.2803,0.2823,0.2822,0.2829,0.2831,0.2838,0.2852,0.2852,0.2843,0.2844,0.2844,0.2844,0,0,0,0,0,0,0,0.2698,0.2705,0.2779,0.2774,0.2777,0.2775,0.2781,0.279,0.2814,0.2805,0.2807,0.2816,0.283,0.2837,0.2838,0.2853,0.2843,0.2844,0.2844,0.2845,0.2929,0.2931,0,0,0,0,0,0,0.2698,0.2702,0.2778,0.2781,0.274,0.2777,0.2784,0.28,0.2815,0.2818,0.2816,0.2817,0.2835,0.2837,0.2839,0.2893,0.2844,0.2845,0.2845,0.2928,0.293,0.2932,0,0,0,0,0,0,0.2696,0.2704,0.2776,0.2744,0.2753,0.278,0.2797,0.2801,0.2815,0.2825,0.2826,0.2827,0.2835,0.2837,0.2865,0.2891,0.2845,0.2846,0.2926,0.2928,0.2931,0.2974,0,0,0,0,0,0,0.2692,0.2703,0.2713,0.2744,0.2755,0.281,0.2798,0.2802,0.2822,0.2822,0.2834,0.2835,0.2835,0.2864,0.2866,0.2892,0.2847,0.2923,0.2927,0.293,0.297,0.2978,0.2984,0,0,0,0,0,0.2689,0.2704,0.2713,0.2722,0.2768,0.2812,0.2817,0.2833,0.2823,0.284,0.2848,0.2835,0.2886,0.2866,0.2868,0.2895,0.2922,0.2926,0.293,0.2967,0.2976,0.2984,0,0,0,0,0,0,0.2659,0.2708,0.2718,0.2746,0.2784,0.2815,0.2831,0.2837,0.2857,0.2855,0.2853,0.2856,0.2892,0.289,0.2868,0.2931,0.2903,0.2908,0.2931,0.294,0.2946,0.2951,0.2848,0,0,0,0,0,0.266,0.2688,0.2732,0.2755,0.2776,0.2803,0.282,0.2834,0.2857,0.2865,0.2871,0.2885,0.291,0.292,0.2939,0.2968,0.2973,0.2989,0.2996,0.3002,0.3009,0.3045,0.3056,0.2944,0.2944,0.2944,0,0,0.265,0.2685,0.2697,0.2752,0.2779,0.2816,0.2813,0.2848,0.2874,0.2863,0.2894,0.2908,0.2924,0.2964,0.2979,0.2964,0.3038,0.3007,0.3011,0.3015,0.305,0.3061,0.307,0.2947,0.2946,0.2946,0,0,0.2654,0.2684,0.271,0.2746,0.2799,0.2826,0.2838,0.2877,0.2894,0.2929,0.2932,0.2965,0.2989,0.3015,0.3029,0.3084,0.3073,0.3089,0.3125,0.316,0.3169,0.3177,0.3199,0.3208,0.3091,0.3091,0.3091,0,0.2639,0.2683,0.2724,0.2762,0.279,0.2832,0.2864,0.2895,0.2935,0.2952,0.2946,0.3005,0.3018,0.3073,0.3099,0.3099,0.3111,0.3089,0.3168,0.3176,0.3184,0.3204,0.3214,0.3094,0.3093,0.3093,0.3093,0,0.2665,0.27,0.2722,0.2787,0.2824,0.2862,0.2915,0.2949,0.2969,0.2995,0.305,0.3075,0.3109,0.3126,0.313,0.3196,0.3185,0.3171,0.3143,0.3197,0.3215,0.3225,0.3097,0.3096,0.3096,0.3095,0,0,0.2626,0.272,0.2726,0.2757,0.2839,0.287,0.293,0.2992,0.3025,0.3068,0.3107,0.3167,0.3177,0.3195,0.3209,0.3248,0.3314,0.3236,0.3237,0.325,0.3387,0.339,0.3401,0.3313,0.3315,0.3317,0.3378,0,0.2633,0.2699,0.2746,0.2804,0.2843,0.2902,0.2953,0.3013,0.3061,0.311,0.3155,0.3199,0.3205,0.3224,0.3268,0.3308,0.3342,0.3298,0.3339,0.334,0.3331,0.3413,0.3341,0.339,0.3387,0.3388,0.339,0,0.2639,0.2686,0.2738,0.2819,0.284,0.2875,0.296,0.3011,0.3099,0.3131,0.319,0.3226,0.3305,0.3288,0.3389,0.3361,0.3379,0.3402,0.3405,0.34,0.3363,0.3337,0.3408,0.3353,0.3404,0.3403,0.3402,0,0.2592,0.2676,0.2715,0.2743,0.2841,0.2865,0.2917,0.3008,0.306,0.3142,0.3199,0.3271,0.3335,0.3371,0.3445,0.3416,0.3546,0.3501,0.3518,0.3517,0.346,0.3452,0.3477,0.3558,0.3558,0.3558,0.3558,0,0.2583,0.2607,0.2691,0.271,0.2753,0.283,0.2883,0.2944,0.3042,0.3115,0.3203,0.3284,0.3365,0.3457,0.347,0.355,0.3568,0.3549,0.3547,0.3474,0.3467,0.3419,0.3385,0.356,0.356,0.3559,0.3559,0,0.2521,0.258,0.2619,0.2706,0.273,0.2753,0.2855,0.2905,0.3013,0.3114,0.3148,0.3319,0.3444,0.3523,0.3606,0.3609,0.3567,0.3663,0.3573,0.3561,0.35,0.3471,0.3332,0.3224,0.3678,0.3679,0.3679,0,0.2496,0.2512,0.2589,0.2608,0.264,0.2693,0.2741,0.2856,0.2922,0.3136,0.3187,0.3366,0.3472,0.3626,0.3668,0.3708,0.359,0.3654,0.3583,0.3516,0.3482,0.33,0.3204,0.3519,0.3519,0.3518,0.3518,0,0.2441,0.2462,0.2495,0.2537,0.2576,0.262,0.2699,0.2747,0.2905,0.3025,0.3181,0.3286,0.3498,0.355,0.3656,0.3661,0.3499,0.3641,0.3595,0.3396,0.3173,0.3062,0.3452,0.3512,0.3512,0.3513,0.3513,0.3513,0.2381,0.2385,0.2429,0.2452,0.2497,0.2523,0.2528,0.2643,0.2738,0.2887,0.3066,0.3201,0.3413,0.3565,0.3547,0.3541,0.3459,0.3473,0.3454,0.3282,0.3143,0.3527,0.3572,0.3573,0.3573,0.3574,0.3575,0,0.2305,0.232,0.2347,0.2368,0.2369,0.2421,0.2484,0.2483,0.2554,0.2759,0.2882,0.3107,0.3216,0.3346,0.3476,0.3396,0.3176,0.3314,0.3047,0.2969,0.3356,0.332,0.3283,0.3283,0.3283,0.3283,0.3283,0.3283,0.2267,0.2256,0.2266,0.2227,0.2237,0.22,0.22,0.2235,0.2351,0.2494,0.2643,0.2805,0.3144,0.3374,0.3373,0.3286,0.3017,0.29,0.2837,0.316,0.3172,0.3183,0.3141,0.3068,0.3068,0.232,0.2315,0.2312]},{"header":{"parameterUnit":"m.s-1","parameterCategory":2,"la1":30.2991,"la2":30.254,"lo1":-89.0895,"lo2":-89.0444,"dy":0.0017,"dx":0.0017,"nx":28,"ny":28,"refTime":"2024-05-06T09:00:00:Z","depth":"0","parameterNumber":3,"parameterNumberName":"V-component_of_CURRENTS"},"data":[0,0,0,0,0,0,0,0,0,0,0,0,0,0,0,0,0,0,0,0,0,0,0,0,0,0,0,0,0,0,0,0,0,0,0,0,0,0,0,0,0,0,0,0,0,0,0,0,0,0,0,0,0,0,0,0,0,0,0.0069,0.0068,0,-0.0008,-0.0009,-0.001,-0.0066,-0.0066,-0.0067,-0.0067,-0.0193,-0.0196,-0.0198,0,0,0,0,0,0,0,0,0,0,0,0,0,0.0128,0.0128,0.0069,0.0068,0.0067,-0.0008,-0.0009,-0.001,-0.0066,-0.0066,-0.0067,-0.0067,-0.0192,-0.0195,-0.0199,0,0,0,0,0,0,0,0,0,0,0,0,0,0.0082,0.0128,0.0069,0.0031,0.0026,-0.0007,-0.0009,-0.001,-0.0066,-0.0066,-0.0067,-0.0068,-0.0191,-0.0195,-0.0199,-0.0213,0,0,-0.0213,-0.0215,0,0,0,0,0,0,0,0,0.0085,0.008,0.0037,0.0033,0.0028,-0.0028,-0.0034,-0.008,-0.0065,-0.0031,-0.0067,-0.0068,-0.0141,-0.015,-0.0163,-0.0219,-0.0225,-0.0213,-0.0216,-0.0218,-0.0219,0,0,0,0,0,0,0,0.0088,0.0082,0.0038,0.0036,0.0031,0.0004,-0.0003,-0.0043,-0.0083,-0.0034,-0.0038,-0.0046,-0.0144,-0.0158,-0.0166,-0.0226,-0.0213,-0.0217,-0.022,-0.0221,-0.0301,-0.0301,0,0,0,0,0,0,0.0101,0.0086,0.0041,0.0036,0.0056,0.0004,-0.0004,-0.0009,-0.0082,-0.0093,-0.0045,-0.0048,-0.015,-0.0161,-0.0171,-0.0183,-0.0218,-0.0222,-0.0224,-0.0302,-0.0301,-0.03,0,0,0,0,0,0,0.0103,0.0098,0.0044,0.0059,0.005,0.0004,-0.0002,-0.001,-0.0025,-0.0089,-0.0102,-0.0051,-0.0151,-0.0165,-0.0196,-0.0189,-0.0224,-0.0228,-0.0302,-0.0301,-0.0301,-0.0213,0,0,0,0,0,0,0.0105,0.0099,0.0104,0.006,0.005,0.0032,-0.0001,-0.0011,-0.0028,-0.0033,-0.0098,-0.011,-0.0153,-0.0189,-0.0201,-0.0195,-0.0231,-0.0303,-0.0302,-0.0301,-0.0216,-0.0209,-0.0203,0,0,0,0,0,0.0107,0.0119,0.0105,0.0099,0.0057,0.0033,0.0025,-0.0011,-0.0028,-0.0028,-0.0068,-0.0108,-0.0191,-0.0192,-0.0206,-0.0201,-0.0303,-0.0302,-0.0301,-0.0219,-0.021,-0.0203,0,0,0,0,0,0,0.0147,0.0113,0.0097,0.0097,0.007,0.0024,0.0022,-0.0004,-0.0036,-0.0039,-0.0101,-0.0116,-0.0143,-0.0181,-0.0181,-0.0221,-0.0254,-0.0256,-0.0188,-0.018,-0.0173,-0.0146,-0.0235,0,0,0,0,0,0.0159,0.0158,0.0119,0.012,0.0112,0.0069,0.0055,0.0031,-0.0004,-0.0019,-0.0063,-0.0109,-0.0148,-0.017,-0.0211,-0.023,-0.0262,-0.0237,-0.023,-0.0224,-0.0211,-0.0247,-0.0241,-0.0296,-0.0297,-0.0297,0,0,0.0173,0.0155,0.0154,0.0128,0.0106,0.0107,0.0059,0.0047,0.0045,-0.0028,-0.004,-0.0089,-0.0148,-0.0171,-0.0186,-0.0202,-0.0225,-0.0223,-0.0217,-0.0207,-0.0245,-0.0239,-0.0235,-0.0296,-0.0296,-0.0296,0,0,0.0208,0.0189,0.0203,0.0187,0.0162,0.0138,0.0138,0.0098,0.0079,0.0059,0.0007,-0.0028,-0.0089,-0.0125,-0.0153,-0.0133,-0.0188,-0.0153,-0.0096,-0.0131,-0.0126,-0.0123,-0.015,-0.015,-0.0148,-0.0148,-0.0148,0,0.0229,0.0238,0.0203,0.0214,0.0212,0.0158,0.0178,0.0151,0.0105,0.0097,0.0068,-0.001,-0.0065,-0.0089,-0.0085,-0.0117,-0.0144,-0.0121,-0.0121,-0.0118,-0.0116,-0.0145,-0.0146,-0.0143,-0.0144,-0.0144,-0.0145,0,0.0273,0.0281,0.0289,0.0288,0.0283,0.0287,0.0253,0.0243,0.0212,0.0181,0.0149,0.0079,0.0035,0.0006,-0.0036,-0.0047,-0.0073,-0.0108,-0.0137,-0.0105,-0.0138,-0.014,-0.0137,-0.0139,-0.014,-0.0141,0,0,0.0316,0.0321,0.0324,0.0342,0.0324,0.0328,0.0331,0.0319,0.0327,0.027,0.0276,0.0196,0.0154,0.0121,0.006,0.0025,0.001,-0.0028,-0.0032,-0.0046,-0.0061,-0.0073,-0.0077,-0.0026,-0.0026,-0.0026,-0.0088,0,0.0363,0.0407,0.0393,0.0438,0.0462,0.0427,0.0439,0.042,0.0388,0.0379,0.0303,0.0276,0.0198,0.0178,0.0134,0.0043,0.0007,0.003,-0.0097,-0.0101,-0.0109,-0.0079,-0.0058,-0.0111,-0.009,-0.0091,-0.0091,0,0.0412,0.0437,0.049,0.0524,0.0532,0.0547,0.0564,0.0568,0.0534,0.0505,0.0463,0.0401,0.0345,0.0272,0.0145,0.0163,0.0064,-0.0013,-0.0018,-0.0059,-0.0117,-0.0142,-0.0116,-0.0304,-0.0095,-0.0095,-0.0095,0,0.0468,0.0507,0.0557,0.0565,0.0589,0.0608,0.0621,0.0606,0.063,0.0585,0.0601,0.0504,0.048,0.0343,0.0185,0.0164,0.0046,-0.0006,-0.0111,-0.0113,-0.0134,-0.0138,-0.0296,-0.0095,-0.0095,-0.0094,-0.0094,0,0.0524,0.0564,0.0585,0.0612,0.0676,0.0673,0.0734,0.0717,0.0732,0.0786,0.0675,0.07,0.0497,0.0406,0.0234,0.0069,0.0081,-0.0087,-0.0125,-0.0103,-0.0103,-0.03,-0.0401,-0.0097,-0.0096,-0.0096,-0.0095,0,0.0576,0.0587,0.065,0.0688,0.0703,0.0751,0.0818,0.0867,0.0859,0.0931,0.0929,0.0856,0.0733,0.0525,0.0311,0.0156,-0.0124,-0.0093,-0.0048,-0.0079,-0.0351,-0.0446,-0.063,-0.07,-0.0211,-0.0211,-0.0212,0,0.0605,0.0641,0.0705,0.0751,0.0769,0.0838,0.0895,0.0917,0.0981,0.104,0.109,0.1004,0.0967,0.065,0.0336,0.004,-0.0141,-0.0131,-0.0173,-0.0351,-0.0486,-0.0559,-0.061,-0.017,-0.017,-0.017,-0.017,0,0.0666,0.0685,0.0737,0.0828,0.0894,0.0982,0.1066,0.114,0.1196,0.1266,0.1346,0.1328,0.1039,0.0749,0.0338,0.0131,-0.0249,-0.0142,-0.0343,-0.0471,-0.0545,-0.0634,-0.0146,-0.0171,-0.0171,-0.0171,-0.0171,-0.017,0.0708,0.0758,0.0827,0.0914,0.0999,0.1113,0.1203,0.1314,0.1442,0.1569,0.154,0.1556,0.1141,0.0585,0.0266,-0.0275,-0.0282,-0.0437,-0.0538,-0.0596,-0.0664,-0.017,-0.0229,-0.0229,-0.0229,-0.0229,-0.023,0,0.0761,0.0822,0.0911,0.102,0.1124,0.1155,0.1311,0.1419,0.1589,0.171,0.1777,0.1604,0.1075,0.0549,-0.0186,-0.0593,-0.0734,-0.0814,-0.0926,-0.0959,-0.0534,-0.0533,-0.064,-0.064,-0.064,-0.064,-0.064,-0.0639,0.0793,0.0885,0.0931,0.11,0.1185,0.1331,0.1426,0.1593,0.1716,0.1874,0.1912,0.19,0.1532,0.0165,-0.0772,-0.0994,-0.126,-0.1333,-0.1475,-0.1209,-0.1182,-0.1156,-0.1181,-0.1422,-0.1423,-0.1839,-0.1844,-0.1847]}],[{"header":{"parameterUnit":"m.s-1","parameterCategory":2,"la1":30.2991,"la2":30.254,"lo1":-89.0895,"lo2":-89.0444,"dy":0.0017,"dx":0.0017,"nx":28,"ny":28,"refTime":"2024-05-06T09:00:00:Z","depth":"2","parameterNumber":2,"parameterNumberName":"U-component_of_CURRENTS"},"data":[0,0,0,0,0,0,0,0,0,0,0,0,0,0,0,0,0,0,0,0,0,0,0,0,0,0,0,0,0,0,0,0,0,0,0,0,0,0,0,0,0,0,0,0,0,0,0,0,0,0,0,0,0,0,0,0,0,0,0.2467,0.2468,0,0.2517,0.2517,0.2518,0.2547,0.2547,0.2547,0.2547,0.2586,0.2586,0.2587,0,0,0,0,0,0,0,0,0,0,0,0,0,0.2398,0.2399,0.2467,0.2468,0.2469,0.2516,0.2517,0.2518,0.2547,0.2547,0.2547,0.2547,0.2585,0.2586,0.2587,0,0,0,0,0,0,0,0,0,0,0,0,0,0.2436,0.2399,0.2467,0.2489,0.2491,0.2516,0.2517,0.2518,0.2547,0.2547,0.2547,0.2547,0.2585,0.2586,0.2588,0.2592,0,0,0.2592,0.2592,0,0,0,0,0,0,0,0,0.2433,0.2438,0.2485,0.2487,0.249,0.2526,0.2507,0.2542,0.2547,0.2526,0.2547,0.2547,0.2564,0.2567,0.2576,0.2594,0.2596,0.2592,0.2593,0.2593,0.2594,0,0,0,0,0,0,0,0.2431,0.2436,0.2487,0.2486,0.2489,0.2496,0.2501,0.2514,0.2543,0.2528,0.253,0.2535,0.2566,0.2575,0.2578,0.2596,0.2592,0.2593,0.2594,0.2594,0.268,0.2682,0,0,0,0,0,0,0.2425,0.2434,0.2485,0.2488,0.2462,0.2497,0.2503,0.2514,0.2543,0.2548,0.2535,0.2536,0.2573,0.2576,0.2579,0.2645,0.2593,0.2594,0.2595,0.2679,0.2681,0.2682,0,0,0,0,0,0,0.2423,0.2429,0.2483,0.2462,0.2469,0.2498,0.251,0.2515,0.2544,0.2549,0.2554,0.2561,0.2573,0.2577,0.2615,0.2644,0.2595,0.2596,0.2677,0.2679,0.2681,0.2739,0,0,0,0,0,0,0.2421,0.2428,0.2438,0.2462,0.247,0.2519,0.251,0.2516,0.2546,0.2549,0.2573,0.2575,0.2573,0.2613,0.2616,0.2645,0.2597,0.2675,0.2678,0.2681,0.2736,0.2743,0.275,0,0,0,0,0,0.2418,0.2435,0.2438,0.2444,0.2481,0.252,0.2527,0.2546,0.2547,0.2571,0.2587,0.2576,0.2632,0.2615,0.2619,0.2649,0.2674,0.2677,0.268,0.2732,0.2742,0.275,0,0,0,0,0,0,0.2411,0.244,0.2444,0.2469,0.25,0.2526,0.2548,0.2559,0.259,0.2591,0.2595,0.26,0.2647,0.264,0.2621,0.2682,0.2651,0.2655,0.2689,0.2698,0.2705,0.2705,0.2599,0,0,0,0,0,0.2412,0.2431,0.2462,0.2482,0.2502,0.2527,0.2545,0.2559,0.2585,0.26,0.2616,0.2633,0.266,0.2672,0.2692,0.2723,0.2723,0.2744,0.2752,0.2758,0.2761,0.2789,0.2799,0.2693,0.2693,0.2693,0,0,0.2409,0.243,0.2439,0.2481,0.2506,0.2536,0.254,0.2576,0.26,0.2597,0.2641,0.2662,0.2676,0.2717,0.2735,0.2716,0.2791,0.2762,0.2767,0.2767,0.2794,0.2804,0.2813,0.2695,0.2695,0.2694,0,0,0.2417,0.2441,0.2461,0.2492,0.2533,0.2552,0.2568,0.2608,0.263,0.267,0.268,0.2719,0.2751,0.2772,0.2784,0.284,0.2832,0.2849,0.2882,0.291,0.2919,0.2927,0.2951,0.2961,0.2848,0.2848,0.2848,0,0.241,0.2442,0.2474,0.2507,0.2532,0.2563,0.2593,0.2623,0.2666,0.2688,0.2691,0.2763,0.2776,0.283,0.2855,0.2856,0.2871,0.2848,0.2919,0.2927,0.2934,0.2957,0.2966,0.2851,0.2851,0.285,0.285,0,0.2433,0.2463,0.2484,0.2531,0.2565,0.2599,0.2642,0.2678,0.2704,0.2729,0.2795,0.2824,0.2864,0.2882,0.2889,0.2951,0.2947,0.2929,0.2896,0.2948,0.2969,0.2978,0.2856,0.2855,0.2854,0.2853,0,0,0.2402,0.2481,0.2488,0.2514,0.258,0.2608,0.266,0.2715,0.2749,0.2798,0.2846,0.2908,0.2929,0.2945,0.2965,0.2996,0.3065,0.2991,0.2991,0.3012,0.3135,0.3119,0.3127,0.3064,0.3066,0.3067,0.3134,0,0.2409,0.2463,0.2505,0.2556,0.259,0.2641,0.2689,0.274,0.2786,0.2841,0.2887,0.2942,0.2951,0.2983,0.3018,0.306,0.309,0.3049,0.3083,0.3084,0.3062,0.3137,0.2916,0.2956,0.3142,0.3144,0.3145,0,0.2414,0.2452,0.2502,0.2574,0.2596,0.2629,0.2707,0.2751,0.2833,0.2874,0.2936,0.2975,0.3052,0.3038,0.3132,0.311,0.3128,0.315,0.3152,0.3121,0.3085,0.2932,0.2965,0.3159,0.3158,0.3157,0.3156,0,0.2372,0.2448,0.2485,0.251,0.2598,0.263,0.2675,0.2757,0.2808,0.2894,0.2952,0.3026,0.3091,0.3125,0.3191,0.3166,0.3282,0.324,0.3239,0.3237,0.3046,0.3026,0.3288,0.3288,0.3288,0.3288,0.3288,0,0.2361,0.2386,0.2468,0.2487,0.2534,0.2605,0.2664,0.272,0.2817,0.2883,0.2964,0.304,0.3122,0.32,0.3215,0.3277,0.3301,0.3266,0.3262,0.3063,0.3044,0.3209,0.3198,0.329,0.329,0.3289,0.3289,0,0.2305,0.2361,0.24,0.2488,0.2514,0.2542,0.2649,0.2696,0.2803,0.2894,0.2932,0.3079,0.3189,0.326,0.3338,0.3327,0.3363,0.3367,0.3136,0.3105,0.3287,0.3279,0.3365,0.3365,0.3365,0.3365,0.3365,0,0.2282,0.2299,0.2378,0.24,0.2437,0.2499,0.2547,0.2663,0.2719,0.2912,0.295,0.3113,0.3194,0.3324,0.3345,0.3379,0.34,0.3177,0.3085,0.3312,0.33,0.3291,0.3284,0.2851,0.2847,0.2844,0.2841,0,0.223,0.2257,0.2291,0.2338,0.2382,0.243,0.2506,0.2548,0.2696,0.2796,0.2921,0.3006,0.3178,0.3138,0.3223,0.3198,0.3154,0.3112,0.341,0.288,0.2836,0.2822,0.2829,0.2811,0.2814,0.2817,0.2818,0.2819,0.2182,0.2186,0.2233,0.2264,0.231,0.2334,0.2343,0.2439,0.2515,0.2624,0.2783,0.2848,0.294,0.2963,0.2897,0.2864,0.3068,0.292,0.2926,0.2936,0.2878,0.2839,0.2803,0.2806,0.2809,0.2811,0.2813,0,0.2111,0.2125,0.2156,0.2182,0.2182,0.2247,0.2296,0.2282,0.2321,0.2473,0.2564,0.2442,0.2467,0.2539,0.247,0.2501,0.2421,0.2379,0.2249,0.2285,0.2315,0.2219,0.1972,0.1969,0.1965,0.1962,0,0,0.2075,0.2064,0.2074,0.2041,0.2062,0.2034,0.2034,0.2036,0.2108,0.2114,0.2158,0.2375,0.2511,0.2208,0.2198,0.2072,0.2143,0.1991,0.2684,0.2571,0.2596,0.2671,0.2571,0,0,0,0,0]},{"header":{"parameterUnit":"m.s-1","parameterCategory":2,"la1":30.2991,"la2":30.254,"lo1":-89.0895,"lo2":-89.0444,"dy":0.0017,"dx":0.0017,"nx":28,"ny":28,"refTime":"2024-05-06T09:00:00:Z","depth":"2","parameterNumber":3,"parameterNumberName":"V-component_of_CURRENTS"},"data":[0,0,0,0,0,0,0,0,0,0,0,0,0,0,0,0,0,0,0,0,0,0,0,0,0,0,0,0,0,0,0,0,0,0,0,0,0,0,0,0,0,0,0,0,0,0,0,0,0,0,0,0,0,0,0,0,0,0,-0.0053,-0.0054,0,-0.0114,-0.0115,-0.0116,-0.0161,-0.0161,-0.0162,-0.0162,-0.0276,-0.0278,-0.0281,0,0,0,0,0,0,0,0,0,0,0,0,0,-0.0,-0.0001,-0.0053,-0.0054,-0.0055,-0.0114,-0.0115,-0.0116,-0.0161,-0.0161,-0.0162,-0.0162,-0.0275,-0.0278,-0.0281,0,0,0,0,0,0,0,0,0,0,0,0,0,-0.0039,-0.0001,-0.0053,-0.0084,-0.0087,-0.0114,-0.0115,-0.0116,-0.0161,-0.0161,-0.0162,-0.0162,-0.0274,-0.0278,-0.0282,-0.0296,0,0,-0.0294,-0.0296,0,0,0,0,0,0,0,0,-0.0036,-0.0041,-0.0079,-0.0082,-0.0086,-0.013,-0.0138,-0.0179,-0.0161,-0.0133,-0.0162,-0.0163,-0.0231,-0.0239,-0.0249,-0.0301,-0.0306,-0.0294,-0.0297,-0.0298,-0.03,0,0,0,0,0,0,0,-0.0034,-0.0038,-0.0078,-0.0079,-0.0084,-0.0103,-0.0109,-0.0146,-0.018,-0.0136,-0.0139,-0.0145,-0.0234,-0.0245,-0.0252,-0.0308,-0.0294,-0.0298,-0.03,-0.0302,-0.0375,-0.0374,0,0,0,0,0,0,-0.0023,-0.0036,-0.0076,-0.008,-0.0061,-0.0104,-0.011,-0.0116,-0.0178,-0.0188,-0.0144,-0.0147,-0.0238,-0.0247,-0.0256,-0.0268,-0.0298,-0.0302,-0.0305,-0.0375,-0.0375,-0.0374,0,0,0,0,0,0,-0.0022,-0.0026,-0.0073,-0.0059,-0.0066,-0.0104,-0.011,-0.0117,-0.0127,-0.0184,-0.0195,-0.0147,-0.0238,-0.0251,-0.028,-0.0273,-0.0304,-0.0308,-0.0376,-0.0375,-0.0374,-0.0297,0,0,0,0,0,0,-0.002,-0.0025,-0.0023,-0.0058,-0.0067,-0.0082,-0.0109,-0.0117,-0.013,-0.0133,-0.019,-0.0202,-0.024,-0.0274,-0.0284,-0.0279,-0.0311,-0.0377,-0.0376,-0.0375,-0.03,-0.0294,-0.0288,0,0,0,0,0,-0.0018,-0.0009,-0.0022,-0.0027,-0.0063,-0.0082,-0.0088,-0.0117,-0.0129,-0.0129,-0.0164,-0.02,-0.0276,-0.0277,-0.0289,-0.0285,-0.0377,-0.0376,-0.0375,-0.0303,-0.0295,-0.0288,0,0,0,0,0,0,0.0017,-0.0014,-0.0029,-0.003,-0.0052,-0.0089,-0.0089,-0.011,-0.0137,-0.014,-0.0195,-0.0208,-0.0233,-0.0267,-0.0267,-0.0303,-0.0332,-0.0333,-0.0273,-0.0266,-0.026,-0.0238,-0.0314,0,0,0,0,0,0.0026,0.0023,-0.001,-0.001,-0.0017,-0.0051,-0.0062,-0.0081,-0.0111,-0.0124,-0.0162,-0.0203,-0.0237,-0.0257,-0.0294,-0.0313,-0.0344,-0.0318,-0.0312,-0.0307,-0.0297,-0.0334,-0.033,-0.0371,-0.0371,-0.0371,0,0,0.0039,0.0022,0.002,-0.0003,-0.0021,-0.002,-0.0058,-0.0068,-0.0069,-0.0132,-0.0142,-0.0185,-0.0238,-0.0258,-0.0272,-0.0286,-0.0311,-0.0305,-0.03,-0.0293,-0.0332,-0.0328,-0.0325,-0.037,-0.037,-0.037,0,0,0.007,0.0051,0.0062,0.0048,0.0027,0.0007,0.0008,-0.0025,-0.004,-0.0058,-0.0102,-0.0135,-0.0187,-0.022,-0.0245,-0.0228,-0.0279,-0.0243,-0.0195,-0.0231,-0.0227,-0.0225,-0.0255,-0.0256,-0.0239,-0.0238,-0.0238,0,0.0089,0.0094,0.0063,0.0071,0.007,0.0025,0.0041,0.0019,-0.0019,-0.0027,-0.0051,-0.0119,-0.0168,-0.0191,-0.0186,-0.0214,-0.0241,-0.0217,-0.0222,-0.022,-0.0219,-0.0251,-0.0253,-0.0235,-0.0235,-0.0235,-0.0236,0,0.0124,0.0131,0.0139,0.0135,0.0131,0.0135,0.0106,0.0097,0.0072,0.0045,0.0016,-0.0046,-0.0085,-0.0108,-0.0145,-0.0158,-0.0181,-0.021,-0.0237,-0.021,-0.0246,-0.0249,-0.0229,-0.023,-0.0232,-0.0232,0,0,0.0163,0.0164,0.0168,0.0183,0.0166,0.017,0.0172,0.0161,0.0167,0.0118,0.0122,0.0052,0.0016,-0.0013,-0.0065,-0.0099,-0.012,-0.0143,-0.0147,-0.0167,-0.0193,-0.0204,-0.021,-0.0149,-0.015,-0.015,-0.0219,0,0.0202,0.0238,0.0226,0.0265,0.0285,0.0255,0.0266,0.0248,0.0219,0.0209,0.0142,0.0119,0.0053,0.0038,-0.0005,-0.0088,-0.0126,-0.0098,-0.0222,-0.0225,-0.0233,-0.0213,-0.0181,-0.024,-0.0223,-0.0224,-0.0224,0,0.0243,0.0264,0.031,0.034,0.0347,0.0361,0.0375,0.0376,0.0342,0.032,0.028,0.0225,0.0173,0.0112,-0.001,0.0012,-0.008,-0.0151,-0.0156,-0.0194,-0.0242,-0.0266,-0.0248,-0.0231,-0.023,-0.023,-0.0229,0,0.0292,0.0326,0.0368,0.0375,0.0397,0.0416,0.0425,0.0408,0.0428,0.0389,0.04,0.0313,0.029,0.0165,0.002,0.0004,-0.0115,-0.0159,-0.0258,-0.026,-0.0271,-0.0273,-0.0248,-0.0248,-0.0248,-0.0248,-0.0247,0,0.0338,0.0375,0.0395,0.0418,0.0477,0.0472,0.0525,0.0512,0.0521,0.0563,0.0465,0.0479,0.0303,0.0213,0.0059,-0.0097,-0.0088,-0.0241,-0.0276,-0.0243,-0.0242,-0.0267,-0.0268,-0.025,-0.025,-0.0249,-0.0249,0,0.0384,0.0394,0.0449,0.0485,0.0501,0.0542,0.0602,0.0641,0.0634,0.0688,0.0688,0.0612,0.0494,0.031,0.0112,-0.0029,-0.0195,-0.0258,-0.0203,-0.023,-0.0328,-0.0325,-0.0374,-0.0375,-0.0375,-0.0376,-0.0377,0,0.0408,0.0439,0.0499,0.054,0.0559,0.062,0.0669,0.069,0.074,0.0777,0.0815,0.0727,0.0679,0.0386,0.0115,-0.0149,-0.019,-0.0292,-0.0323,-0.031,-0.034,-0.0335,-0.0331,-0.031,-0.031,-0.031,-0.031,0,0.0458,0.0476,0.0523,0.0606,0.0666,0.0742,0.0814,0.0874,0.0918,0.0966,0.1012,0.0979,0.072,0.046,0.0103,-0.0073,-0.0249,-0.03,-0.0299,-0.0279,-0.0255,-0.0283,-0.028,-0.031,-0.031,-0.031,-0.031,-0.031,0.0494,0.0534,0.0595,0.0676,0.0753,0.0848,0.0925,0.1008,0.1103,0.1187,0.1158,0.113,0.0836,0.039,0.0068,-0.0255,-0.0247,-0.0359,-0.0358,-0.0357,-0.0332,-0.0311,-0.0371,-0.0371,-0.0372,-0.0372,-0.0372,0,0.0533,0.0581,0.0661,0.0758,0.0848,0.0889,0.1015,0.1089,0.1206,0.1292,0.133,0.1079,0.0786,0.0452,-0.0033,-0.0331,-0.0352,-0.0413,-0.038,-0.0377,-0.0375,-0.0351,-0.0396,-0.0397,-0.0398,-0.0399,0,0,0.0556,0.0631,0.067,0.0815,0.0897,0.1026,0.1106,0.1212,0.1297,0.1364,0.1376,0.1334,0.0922,0.0567,0.0156,-0.0122,-0.0177,-0.0169,-0.0115,-0.0024,-0.0019,-0.0308,-0.0263,0,0,0,0,0]}],[{"header":{"parameterUnit":"m.s-1","parameterCategory":2,"la1":30.2991,"la2":30.254,"lo1":-89.0895,"lo2":-89.0444,"dy":0.0017,"dx":0.0017,"nx":28,"ny":28,"refTime":"2024-05-06T09:00:00:Z","depth":"4","parameterNumber":2,"parameterNumberName":"U-component_of_CURRENTS"},"data":[0,0,0,0,0,0,0,0,0,0,0,0,0,0,0,0,0,0,0,0,0,0,0,0,0,0,0,0,0,0,0,0,0,0,0,0,0,0,0,0,0,0,0,0,0,0,0,0,0,0,0,0,0,0,0,0,0,0,0.1524,0.1525,0,0.1582,0.1582,0.1583,0.1633,0.1634,0.1635,0.1636,0.1685,0.1685,0.1686,0,0,0,0,0,0,0,0,0,0,0,0,0,0.146,0.146,0.1524,0.1525,0.1526,0.1582,0.1582,0.1583,0.1633,0.1634,0.1635,0.1636,0.1685,0.1685,0.1686,0,0,0,0,0,0,0,0,0,0,0,0,0,0.1498,0.1461,0.1524,0.1559,0.1563,0.1582,0.1582,0.1583,0.1633,0.1634,0.1635,0.1636,0.1684,0.1685,0.1686,0.1669,0,0,0.1689,0.1689,0,0,0,0,0,0,0,0,0.1495,0.15,0.1553,0.1557,0.1561,0.1603,0.1578,0.1612,0.1633,0.1604,0.1636,0.1637,0.1657,0.166,0.1666,0.1671,0.1673,0.1689,0.1689,0.169,0.169,0,0,0,0,0,0,0,0.1493,0.1498,0.1545,0.1554,0.1559,0.1573,0.1579,0.1584,0.1622,0.1607,0.1611,0.162,0.1659,0.1665,0.1668,0.1674,0.1689,0.169,0.169,0.1691,0.1782,0.1784,0,0,0,0,0,0,0.1488,0.1495,0.1543,0.1547,0.1533,0.1573,0.158,0.1587,0.1622,0.1629,0.1619,0.1623,0.1663,0.1666,0.1669,0.175,0.169,0.1691,0.1691,0.1781,0.1783,0.1785,0,0,0,0,0,0,0.1486,0.1492,0.1541,0.1524,0.1532,0.1573,0.158,0.1588,0.1629,0.1632,0.1639,0.1657,0.1664,0.1668,0.171,0.1749,0.1691,0.1692,0.1778,0.1781,0.1784,0.1847,0,0,0,0,0,0,0.1484,0.1491,0.151,0.1524,0.1532,0.1572,0.158,0.1588,0.1631,0.1637,0.1666,0.167,0.1665,0.1709,0.1711,0.1749,0.1693,0.1776,0.178,0.1783,0.1843,0.1852,0.186,0,0,0,0,0,0.1482,0.1495,0.151,0.1517,0.1552,0.1573,0.158,0.1611,0.1632,0.1652,0.1681,0.1671,0.1734,0.1711,0.1713,0.1752,0.1774,0.1779,0.1783,0.1839,0.185,0.186,0,0,0,0,0,0,0.1481,0.1502,0.1519,0.1541,0.1567,0.1583,0.1608,0.163,0.1667,0.1685,0.1689,0.1694,0.1743,0.1741,0.1716,0.1791,0.1755,0.1759,0.1797,0.1807,0.1816,0.1816,0.1693,0,0,0,0,0,0.1488,0.1507,0.1528,0.1552,0.1564,0.1594,0.1614,0.1638,0.1665,0.1685,0.1707,0.1734,0.1756,0.1778,0.179,0.1829,0.1834,0.1859,0.1867,0.1874,0.1878,0.192,0.1933,0.1799,0.1799,0.1799,0,0,0.1496,0.1513,0.1526,0.1555,0.1578,0.16,0.1609,0.1649,0.1683,0.1681,0.1743,0.1759,0.1771,0.1816,0.1839,0.1826,0.1918,0.188,0.1886,0.1885,0.1926,0.1939,0.195,0.1802,0.1801,0.1801,0,0,0.151,0.1536,0.1552,0.1573,0.1614,0.163,0.1648,0.1685,0.1721,0.177,0.1784,0.1828,0.1861,0.1883,0.1895,0.1958,0.1955,0.1971,0.2023,0.2064,0.2075,0.2085,0.2118,0.213,0.1983,0.1984,0.1984,0,0.1525,0.1543,0.1563,0.1582,0.1607,0.1646,0.167,0.1707,0.176,0.1793,0.1801,0.1876,0.189,0.1947,0.1978,0.1977,0.1999,0.198,0.2075,0.2085,0.2093,0.2124,0.2137,0.1987,0.1987,0.1986,0.1986,0,0.1534,0.1565,0.1578,0.1614,0.1643,0.1675,0.1717,0.1767,0.1814,0.1847,0.1923,0.195,0.1998,0.2015,0.2018,0.2096,0.2092,0.2073,0.2046,0.2111,0.2139,0.2151,0.1992,0.1991,0.199,0.1989,0,0,0.1523,0.1574,0.1583,0.161,0.1666,0.1688,0.1753,0.1813,0.1867,0.1927,0.1995,0.205,0.208,0.2097,0.2117,0.216,0.2248,0.2157,0.2158,0.2184,0.2348,0.2213,0.2213,0.2254,0.2256,0.2258,0.2346,0,0.153,0.1566,0.1595,0.1649,0.167,0.1729,0.1783,0.185,0.1912,0.1987,0.2042,0.2107,0.2108,0.2151,0.2197,0.2238,0.2282,0.2226,0.2286,0.2288,0.2155,0.2222,0.2265,0.2355,0.2358,0.236,0.2361,0,0.152,0.155,0.1594,0.1669,0.1686,0.1732,0.1828,0.1884,0.1989,0.2042,0.212,0.2164,0.2259,0.224,0.2348,0.2319,0.2345,0.2362,0.2366,0.2222,0.2173,0.2275,0.2382,0.238,0.2379,0.2377,0.2376,0,0.1481,0.1549,0.1588,0.1611,0.1696,0.1748,0.1808,0.1907,0.1969,0.209,0.2151,0.2246,0.2324,0.237,0.2429,0.2405,0.2528,0.249,0.2387,0.2378,0.2444,0.2432,0.2553,0.2553,0.2553,0.2553,0.2552,0,0.1454,0.1491,0.1581,0.1601,0.167,0.1739,0.1824,0.1901,0.2015,0.2083,0.2188,0.2255,0.2366,0.2446,0.2465,0.2471,0.2564,0.2406,0.2394,0.247,0.2461,0.2453,0.244,0.2556,0.2555,0.2555,0.2554,0,0.1395,0.1453,0.1506,0.161,0.165,0.1702,0.1831,0.1885,0.2009,0.2106,0.2155,0.2307,0.2406,0.2487,0.2577,0.2514,0.2527,0.2502,0.2597,0.2588,0.2339,0.2329,0.2385,0.2381,0.2378,0.2375,0.2373,0,0.1363,0.1383,0.1499,0.1536,0.1591,0.1678,0.1736,0.187,0.1923,0.2111,0.2146,0.2305,0.2384,0.2409,0.2497,0.2526,0.2494,0.2481,0.2384,0.234,0.2324,0.2319,0.2313,0.2367,0.2366,0.2365,0.2364,0,0.1301,0.1355,0.1397,0.1475,0.1546,0.1605,0.17,0.1728,0.1873,0.2013,0.2087,0.2147,0.2259,0.2323,0.2375,0.2382,0.2474,0.2445,0.245,0.2359,0.2318,0.2305,0.2304,0.2353,0.2354,0.2356,0.2356,0,0.1258,0.1272,0.1336,0.1394,0.1475,0.1502,0.1562,0.1627,0.1702,0.19,0.1923,0.2086,0.2233,0.2251,0.2294,0.2301,0.2255,0.2164,0.2183,0.2197,0.2094,0.2013,0.1953,0,0,0,0,0,0.1206,0.1206,0.125,0.1301,0.1374,0.1422,0.1523,0.1583,0.1726,0.1731,0.1818,0.1904,0.1983,0.2074,0.2045,0.2211,0.2263,0.2166,0.2166,0.2288,0.2301,0.2197,0,0,0,0,0,0,0.1167,0.12,0.121,0.1208,0.1227,0.1293,0.1348,0.1445,0.1449,0.1608,0.1665,0.1794,0.1904,0.1988,0.2013,0.2039,0.1998,0.2273,0.2268,0.228,0.2292,0.2303,0.2201,0,0,0,0,0]},{"header":{"parameterUnit":"m.s-1","parameterCategory":2,"la1":30.2991,"la2":30.254,"lo1":-89.0895,"lo2":-89.0444,"dy":0.0017,"dx":0.0017,"nx":28,"ny":28,"refTime":"2024-05-06T09:00:00:Z","depth":"4","parameterNumber":3,"parameterNumberName":"V-component_of_CURRENTS"},"data":[0,0,0,0,0,0,0,0,0,0,0,0,0,0,0,0,0,0,0,0,0,0,0,0,0,0,0,0,0,0,0,0,0,0,0,0,0,0,0,0,0,0,0,0,0,0,0,0,0,0,0,0,0,0,0,0,0,0,-0.0015,-0.0015,0,-0.005,-0.005,-0.0051,-0.0077,-0.0077,-0.0077,-0.0078,-0.0139,-0.0141,-0.0142,0,0,0,0,0,0,0,0,0,0,0,0,0,0.001,0.001,-0.0015,-0.0015,-0.0016,-0.005,-0.005,-0.0051,-0.0077,-0.0077,-0.0078,-0.0078,-0.0139,-0.0141,-0.0142,0,0,0,0,0,0,0,0,0,0,0,0,0,-0.001,0.001,-0.0015,-0.0033,-0.0035,-0.005,-0.005,-0.0051,-0.0077,-0.0077,-0.0078,-0.0078,-0.0138,-0.0141,-0.0143,-0.0149,0,0,-0.0149,-0.015,0,0,0,0,0,0,0,0,-0.0009,-0.0011,-0.003,-0.0032,-0.0034,-0.0059,-0.0064,-0.0085,-0.0077,-0.0061,-0.0078,-0.0078,-0.0115,-0.0119,-0.0124,-0.0152,-0.0154,-0.0149,-0.0151,-0.0152,-0.0152,0,0,0,0,0,0,0,-0.0007,-0.001,-0.0029,-0.003,-0.0033,-0.0046,-0.0049,-0.0068,-0.0086,-0.0062,-0.0064,-0.0068,-0.0116,-0.0122,-0.0126,-0.0155,-0.0149,-0.0151,-0.0153,-0.0153,-0.0196,-0.0196,0,0,0,0,0,0,-0.0002,-0.0008,-0.0028,-0.003,-0.0022,-0.0046,-0.0049,-0.0051,-0.0085,-0.0091,-0.0068,-0.0069,-0.0118,-0.0124,-0.0128,-0.0136,-0.0152,-0.0154,-0.0155,-0.0196,-0.0196,-0.0195,0,0,0,0,0,0,-0.0001,-0.0003,-0.0026,-0.002,-0.0024,-0.0046,-0.0047,-0.0051,-0.0058,-0.0089,-0.0095,-0.007,-0.0119,-0.0125,-0.0141,-0.0139,-0.0155,-0.0156,-0.0196,-0.0196,-0.0196,-0.0152,0,0,0,0,0,0,0.0,-0.0002,-0.0001,-0.0019,-0.0024,-0.003,-0.0047,-0.0052,-0.006,-0.0062,-0.0093,-0.0099,-0.012,-0.0137,-0.0143,-0.0142,-0.0158,-0.0196,-0.0196,-0.0196,-0.0154,-0.015,-0.0147,0,0,0,0,0,0.0001,0.0007,-0.0,-0.0003,-0.0021,-0.0029,-0.0033,-0.005,-0.0059,-0.0058,-0.0079,-0.0098,-0.014,-0.0139,-0.0145,-0.0145,-0.0196,-0.0196,-0.0196,-0.0155,-0.0151,-0.0148,0,0,0,0,0,0,0.0019,0.0005,-0.0004,-0.0003,-0.0014,-0.0034,-0.0034,-0.0047,-0.0062,-0.0064,-0.0095,-0.0102,-0.0114,-0.0135,-0.0133,-0.0157,-0.0172,-0.0173,-0.0139,-0.0135,-0.0132,-0.0119,-0.016,0,0,0,0,0,0.0024,0.0025,0.0008,0.0009,0.0006,-0.0014,-0.0019,-0.003,-0.0047,-0.0054,-0.0076,-0.01,-0.0117,-0.013,-0.0148,-0.0161,-0.0186,-0.0166,-0.0163,-0.016,-0.0154,-0.0191,-0.0191,-0.0194,-0.0194,-0.0194,0,0,0.0031,0.0023,0.0023,0.0013,0.0003,0.0007,-0.0018,-0.0022,-0.0021,-0.0058,-0.0064,-0.0088,-0.0117,-0.0129,-0.0137,-0.0147,-0.0172,-0.016,-0.0157,-0.0152,-0.0191,-0.019,-0.019,-0.0194,-0.0194,-0.0194,0,0,0.0049,0.0039,0.0048,0.0042,0.0032,0.0022,0.0023,0.0005,-0.0005,-0.0013,-0.0039,-0.0061,-0.0088,-0.011,-0.0124,-0.0116,-0.0151,-0.0124,-0.0101,-0.0137,-0.0137,-0.0138,-0.0167,-0.017,-0.0126,-0.0126,-0.0126,0,0.0059,0.0066,0.0049,0.0056,0.0058,0.0032,0.0046,0.0033,0.0012,0.0006,-0.0009,-0.005,-0.0079,-0.0095,-0.0093,-0.0109,-0.0133,-0.0112,-0.0133,-0.0134,-0.0135,-0.0165,-0.0169,-0.0124,-0.0124,-0.0124,-0.0124,0,0.0082,0.0089,0.0094,0.0097,0.0098,0.0103,0.0089,0.0083,0.0067,0.005,0.0031,-0.0008,-0.0033,-0.0049,-0.0069,-0.0088,-0.0103,-0.0121,-0.0141,-0.0132,-0.0164,-0.0169,-0.0121,-0.0121,-0.0122,-0.0122,0,0,0.0101,0.011,0.0112,0.0125,0.0121,0.0126,0.013,0.0125,0.0126,0.0095,0.0095,0.0051,0.0025,0.0007,-0.0027,-0.0062,-0.0094,-0.0091,-0.0094,-0.0117,-0.0169,-0.0168,-0.0174,-0.0117,-0.0117,-0.0118,-0.0188,0,0.0125,0.0152,0.015,0.018,0.0195,0.0181,0.019,0.0181,0.0161,0.0152,0.0105,0.009,0.0047,0.0036,-0.0006,-0.0067,-0.0105,-0.0073,-0.0178,-0.0181,-0.0178,-0.0179,-0.012,-0.0192,-0.0194,-0.0195,-0.0195,0,0.0149,0.0166,0.02,0.0228,0.0234,0.0248,0.0258,0.026,0.0236,0.0222,0.0191,0.0154,0.0107,0.0069,-0.0038,-0.0014,-0.0086,-0.014,-0.0145,-0.0161,-0.0189,-0.0205,-0.0205,-0.0204,-0.0203,-0.0203,-0.0202,0,0.0173,0.0203,0.0234,0.0242,0.0265,0.028,0.0291,0.028,0.0292,0.0264,0.0269,0.02,0.0177,0.0078,-0.0034,-0.0038,-0.0152,-0.0175,-0.0243,-0.0244,-0.0243,-0.0242,-0.0254,-0.0254,-0.0254,-0.0254,-0.0254,0,0.0198,0.0225,0.0249,0.0266,0.031,0.0313,0.0347,0.0344,0.0349,0.0372,0.0308,0.0307,0.0178,0.0099,-0.0015,-0.0139,-0.0143,-0.0236,-0.0262,-0.0223,-0.0219,-0.0247,-0.0245,-0.0257,-0.0256,-0.0256,-0.0255,0,0.0218,0.0232,0.0273,0.0307,0.0323,0.0352,0.0397,0.0419,0.0416,0.0445,0.0445,0.0387,0.0285,0.0149,-0.001,-0.0103,-0.0231,-0.0278,-0.0217,-0.0239,-0.0304,-0.0299,-0.0357,-0.0358,-0.0358,-0.0359,-0.0359,0,0.0229,0.025,0.0302,0.0334,0.0353,0.0396,0.0431,0.0451,0.048,0.0494,0.0516,0.0439,0.0379,0.017,0.001,-0.0205,-0.024,-0.0309,-0.0316,-0.0295,-0.0314,-0.0309,-0.0304,-0.036,-0.036,-0.036,-0.036,0,0.025,0.0267,0.03,0.0364,0.041,0.0464,0.0516,0.0546,0.0575,0.0582,0.0582,0.0478,0.0366,0.0189,0.0023,-0.0136,-0.0265,-0.0315,-0.0315,-0.0322,-0.0299,-0.0316,-0.031,-0.0361,-0.0361,-0.0361,-0.0361,0,0.0263,0.0288,0.0331,0.0389,0.0451,0.0512,0.0538,0.0583,0.0615,0.0637,0.0634,0.0514,0.0448,0.0224,0.0069,-0.0083,-0.013,-0.0186,-0.0194,-0.0195,-0.0132,-0.0078,-0.0091,0,0,0,0,0,0.0272,0.0301,0.0354,0.0419,0.0483,0.0523,0.0589,0.0611,0.0645,0.066,0.0653,0.0552,0.0343,0.025,0.0099,0.0031,-0.0178,-0.0154,-0.0253,-0.037,-0.0368,-0.0323,0,0,0,0,0,0,0.0277,0.0323,0.0349,0.0431,0.0482,0.0557,0.0601,0.0628,0.0636,0.0652,0.0547,0.051,0.0303,0.0436,0.0098,0.0051,-0.0035,-0.0248,-0.0251,-0.0371,-0.037,-0.0368,-0.0321,0,0,0,0,0]}]]